Wind_Speed
13 14 14 15 15 15 15 15 16 18 17 17 17 17 17 17 17 18 19 20 21 22 23 23 24 25 25 25 26 27 28 28 28 27 27 27 27 27 28 29 30 31 31 30
14 15 15 14 13 13 13 13 15 16 16 16 16 16 16 15 16 17 18 19 21 22 23 24 24 25 25 26 27 28 28 28 28 28 28 27 27 28 28 28 28 29 30 30
14 15 14 13 12 13 13 13 15 15 14 14 14 14 15 16 17 18 19 20 21 22 23 23 24 25 26 27 28 28 28 28 28 28 28 28 28 28 28 27 27 28 29 30
14 14 13 12 12 13 13 14 14 14 12 13 12 12 16 16 17 19 20 20 21 21 22 23 24 24 25 27 28 28 28 28 28 28 28 28 28 28 28 28 27 27 28 28
14 13 12 12 13 13 14 14 13 13 12 11 12 11 16 16 18 19 20 21 22 22 22 23 23 24 25 26 26 27 27 27 27 28 28 28 28 27 27 27 27 27 27 28
13 13 12 13 13 13 13 13 12 12 11 12 13 12 15 16 16 18 19 20 21 21 21 22 22 23 24 24 25 25 25 25 26 27 27 27 27 26 26 26 27 28 27 27
12 12 12 12 13 13 12 11 10 10 10 12 15 14 16 17 17 18 19 19 20 19 19 20 21 22 23 23 23 23 23 23 23 24 25 26 26 26 25 25 26 27 27 27
11 12 13 13 13 13 12 11 11 11 11 12 16 15 17 17 18 18 18 18 19 19 20 21 21 22 21 21 21 22 22 22 22 23 24 25 26 26 26 25 25 25 26 26
12 14 14 13 13 13 12 12 12 11 11 11 14 15 16 16 16 17 17 18 19 20 20 21 21 21 21 20 20 21 22 21 22 23 23 24 25 25 25 25 24 25 25 25
14 14 14 14 13 13 13 13 13 10 10 11 12 14 15 15 16 16 17 18 19 20 20 21 21 21 20 20 20 21 21 21 21 22 22 23 23 23 23 23 23 23 24 24
15 14 14 14 14 14 13 13 12 12 12 12 12 14 16 16 17 17 18 19 19 20 21 21 21 21 21 20 20 20 20 20 20 21 21 21 21 22 22 22 22 22 22 23
15 15 15 15 15 14 14 14 13 13 14 14 14 16 16 17 17 18 18 19 20 20 21 21 21 21 21 21 20 20 19 20 20 20 20 21 21 21 21 21 21 21 21 21
14 15 14 14 14 14 15 14 14 14 14 15 14 17 17 17 18 19 19 20 20 21 21 21 21 21 21 21 20 20 20 20 20 20 20 20 21 21 21 21 21 21 21 21
15 15 15 15 15 15 14 14 15 14 15 15 15 17 19 18 19 20 20 21 21 21 22 22 23 22 22 21 21 21 21 21 20 20 20 21 21 21 21 21 21 21 21 22
14 15 16 16 16 15 15 15 15 15 15 15 16 18 19 19 20 20 20 21 22 22 23 23 23 22 22 22 21 21 21 21 21 21 21 20 21 21 20 20 21 20 20 21
14 14 15 15 15 14 14 15 15 15 16 16 16 18 18 20 20 21 21 22 22 22 23 23 22 22 22 22 21 21 21 21 21 20 21 20 21 21 20 19 20 20 19 19
13 14 13 13 13 12 13 14 14 14 14 15 16 17 18 19 20 21 22 22 22 22 23 23 22 21 21 20 20 20 20 20 20 20 19 19 19 19 18 18 18 18 17 17
12 13 13 12 12 13 13 13 13 13 14 15 16 17 18 19 20 20 21 22 22 22 22 22 21 20 19 20 19 19 19 18 17 17 17 17 17 17 16 16 15 16 15 15
11 12 12 12 12 12 12 12 11 12 13 14 15 17 18 19 20 21 22 22 22 22 21 21 19 19 19 18 18 17 16 15 14 14 14 14 14 13 13 13 14 13 13 13
10 11 11 11 11 11 12 11 11 11 12 13 14 16 17 19 20 21 21 21 21 20 19 18 18 17 16 16 15 14 13 12 11 11 11 10 10 10 10 11 11 11 11 11
9 9 9 9 10 11 11 10 10 10 12 13 14 16 17 19 20 20 20 20 19 18 16 15 14 13 13 13 12 11 10 9 9 9 9 8 8 9 8 9 9 9 9 9
7 8 8 8 9 9 9 9 9 10 12 13 14 15 16 18 19 19 18 17 16 15 13 12 11 11 10 9 9 8 7 7 7 7 6 7 7 7 7 7 7 7 6 7
7 7 7 7 8 7 7 8 9 10 11 12 14 15 16 17 17 17 16 14 13 13 11 10 8 7 7 7 5 5 4 4 5 5 5 5 4 4 5 5 4 4 4 4
6 7 7 7 7 7 7 7 8 9 11 12 13 14 15 15 16 14 13 12 12 10 8 6 5 4 4 2 2 2 2 3 3 4 4 3 3 3 3 2 2 2 2 2
6 7 7 6 7 6 5 6 7 9 10 12 12 13 13 14 14 13 12 11 9 8 6 4 3 2 1 0 1 2 3 4 4 5 5 4 4 3 3 2 2 1 1 1
6 7 6 6 6 5 5 6 7 8 9 9 10 11 12 12 12 12 11 10 8 7 5 4 3 2 2 2 3 4 5 6 6 6 6 5 5 5 4 4 4 3 3 3
Wind_Direction
225 222 219 218 215 215 216 217 225 235 236 235 238 243 247 249 254 256 256 256 257 260 260 260 260 262 264 265 265 266 267 267 267 266 264 266 268 269 267 267 268 262 259 257
221 220 221 220 217 216 215 218 228 236 236 238 243 248 251 252 254 256 257 260 262 262 262 261 262 263 265 267 268 268 267 267 267 264 264 265 267 268 269 269 268 262 258 256
217 222 222 220 216 213 214 214 225 234 238 242 245 248 249 252 256 259 260 263 265 265 264 264 265 266 268 268 268 267 266 267 266 264 265 266 267 267 267 267 266 261 258 257
219 221 221 217 214 212 215 222 228 236 240 245 244 247 257 255 258 261 263 266 268 268 267 268 269 269 270 270 269 267 267 267 264 263 264 265 266 267 266 266 266 261 258 257
221 219 216 214 213 211 218 224 229 235 236 245 251 245 259 261 262 263 265 267 268 269 270 272 273 273 274 272 270 269 268 267 264 263 262 263 266 267 265 264 263 260 258 257
220 218 216 215 215 216 222 227 236 243 246 250 253 251 260 267 265 265 266 269 271 273 273 275 275 276 277 274 272 270 269 268 265 262 261 261 264 265 264 263 262 262 260 258
221 221 221 220 218 220 222 226 240 247 250 252 261 259 257 267 269 270 271 273 275 276 278 279 280 281 280 277 273 268 268 268 266 264 264 263 263 265 265 264 263 262 261 260
216 220 224 221 218 222 226 224 228 239 247 255 271 266 266 271 272 272 271 273 274 277 279 280 282 283 282 279 274 270 269 268 269 268 267 266 264 266 265 265 264 262 261 260
209 219 226 225 224 225 232 230 231 242 253 258 266 273 273 272 272 272 273 274 275 278 280 282 283 282 282 281 278 274 272 270 270 269 268 267 267 267 266 265 264 263 262 261
213 219 225 226 229 232 232 237 242 248 258 263 269 275 279 277 273 273 275 276 278 280 282 283 285 283 283 283 280 276 274 272 272 269 269 267 267 267 267 267 264 263 261 261
218 219 225 229 230 236 242 246 249 252 256 264 271 273 277 280 276 276 278 280 281 283 285 285 285 284 283 283 282 278 274 274 275 272 268 266 266 267 268 268 266 264 261 260
220 221 225 232 237 238 242 249 254 258 266 268 270 273 277 279 281 280 281 283 284 287 289 288 287 286 284 282 281 279 277 277 278 276 271 266 265 266 268 268 266 262 261 259
224 224 226 237 244 245 247 252 256 260 265 270 273 279 280 281 283 283 283 285 287 289 291 290 288 287 286 284 283 281 279 279 279 277 274 271 269 267 267 266 264 262 259 257
228 228 228 234 243 247 250 253 257 263 268 273 276 277 282 283 285 285 285 286 289 290 291 290 288 288 287 286 284 283 281 279 279 277 274 273 270 269 268 266 264 261 259 257
229 232 234 239 243 248 251 256 261 267 270 273 277 281 283 286 287 288 288 289 290 291 292 291 289 287 287 286 285 284 283 280 280 278 275 272 269 269 268 267 265 262 261 259
230 231 235 241 245 249 253 257 261 268 274 277 280 284 287 290 292 292 293 293 292 292 293 295 293 289 287 285 284 284 283 282 279 277 274 271 270 268 268 267 266 264 264 260
232 227 231 238 245 250 254 256 262 271 277 281 284 288 291 294 295 296 296 295 295 293 293 294 294 291 287 285 285 284 284 282 279 276 273 270 269 268 267 268 265 265 265 262
227 226 228 234 242 248 254 257 265 274 278 283 287 291 295 299 301 301 301 299 298 295 293 293 291 289 287 287 287 286 284 280 279 276 272 269 266 264 265 265 264 264 263 262
225 226 228 232 240 248 255 261 268 276 282 286 292 295 299 303 305 305 303 302 301 298 296 294 291 289 289 288 286 284 282 278 276 273 271 268 264 261 261 260 261 261 259 259
222 223 226 231 237 245 254 260 267 275 282 290 297 302 304 307 308 308 307 305 304 302 299 296 293 291 290 289 288 283 279 276 273 270 266 260 259 257 255 256 259 260 257 253
220 222 225 229 235 243 252 260 270 278 286 294 301 306 310 312 312 312 311 310 308 306 303 298 295 294 290 288 284 281 276 271 269 266 258 252 251 249 249 252 254 258 255 252
215 215 218 224 232 242 251 260 270 281 290 298 305 310 315 317 317 315 314 313 312 310 308 301 295 292 288 286 283 277 269 265 263 257 246 244 242 242 242 243 248 249 252 253
216 214 217 226 235 244 254 267 279 287 295 301 309 314 319 322 322 320 319 318 318 318 312 303 296 294 293 290 281 268 260 249 237 230 221 220 223 227 226 228 232 235 242 245
216 215 221 231 239 247 257 272 286 295 300 305 313 319 324 328 328 328 327 328 328 328 321 314 309 305 301 284 255 238 209 186 185 186 183 184 187 188 192 199 205 222 242 245
216 220 228 237 242 247 259 280 294 302 308 314 321 326 329 333 335 337 339 342 343 343 340 334 335 343 358 168 153 135 140 146 139 137 136 136 139 147 155 150 142 152 214 233
219 224 229 235 240 245 264 286 299 312 319 323 329 334 335 338 341 344 348 352 359 4 11 20 34 65 87 104 122 127 129 127 127 131 130 127 128 129 127 122 115 111 114 110
Height
5806 5809 5811 5813 5816 5818 5820 5823 5824 5825 5827 5829 5831 5833 5834 5836 5837 5838 5839 5840 5841 5841 5841 5841 5841 5841 5841 5841 5840 5840 5839 5839 5839 5838 5838 5838 5837 5837 5837 5836 5835 5835 5834 5836
5804 5806 5808 5810 5813 5816 5818 5821 5822 5823 5825 5827 5828 5830 5831 5832 5834 5834 5835 5836 5836 5836 5836 5836 5836 5835 5835 5835 5834 5833 5833 5832 5832 5832 5831 5831 5831 5831 5830 5829 5827 5827 5828 5829
5801 5804 5805 5808 5811 5813 5816 5818 5820 5821 5823 5824 5826 5828 5828 5829 5830 5830 5831 5831 5831 5831 5830 5830 5830 5829 5829 5828 5827 5826 5826 5825 5825 5824 5824 5824 5824 5824 5823 5822 5821 5821 5821 5822
5798 5801 5803 5806 5809 5811 5814 5815 5817 5819 5821 5823 5825 5827 5825 5826 5826 5826 5826 5826 5826 5825 5824 5824 5823 5822 5822 5821 5820 5819 5818 5818 5817 5817 5817 5817 5817 5817 5816 5815 5814 5814 5814 5814
5796 5799 5801 5804 5806 5808 5811 5812 5815 5816 5819 5821 5822 5825 5824 5822 5822 5821 5821 5820 5820 5819 5818 5817 5817 5816 5815 5814 5813 5812 5811 5811 5810 5810 5810 5810 5810 5809 5809 5808 5808 5807 5808 5808
5794 5796 5799 5801 5803 5806 5808 5811 5813 5814 5817 5819 5819 5821 5821 5818 5817 5817 5816 5815 5814 5813 5812 5811 5810 5809 5808 5806 5805 5804 5804 5803 5803 5803 5803 5803 5803 5803 5802 5802 5801 5801 5801 5802
5792 5794 5796 5799 5801 5804 5806 5810 5813 5814 5815 5817 5815 5815 5816 5813 5813 5812 5811 5810 5808 5807 5806 5805 5804 5803 5801 5800 5798 5798 5797 5797 5797 5797 5797 5797 5797 5796 5796 5795 5795 5795 5795 5795
5792 5794 5795 5796 5799 5802 5804 5807 5812 5813 5814 5813 5810 5810 5810 5808 5807 5806 5805 5804 5803 5802 5801 5800 5798 5796 5795 5793 5792 5792 5791 5791 5791 5790 5790 5790 5790 5790 5789 5789 5788 5788 5788 5788
5790 5792 5792 5794 5796 5799 5801 5803 5806 5807 5808 5809 5808 5806 5805 5803 5802 5801 5800 5799 5798 5797 5795 5794 5792 5791 5789 5788 5787 5786 5785 5785 5785 5784 5784 5784 5784 5783 5783 5782 5782 5782 5782 5782
5786 5789 5790 5792 5794 5796 5798 5800 5801 5803 5804 5805 5805 5803 5802 5799 5798 5797 5795 5794 5793 5792 5790 5788 5787 5785 5784 5782 5781 5780 5779 5779 5779 5778 5778 5777 5777 5777 5777 5776 5776 5776 5776 5776
5783 5786 5788 5790 5791 5794 5795 5797 5798 5799 5800 5801 5801 5801 5796 5794 5793 5792 5791 5789 5788 5787 5785 5783 5781 5780 5778 5777 5775 5774 5774 5773 5773 5772 5772 5771 5771 5771 5770 5770 5770 5770 5770 5770
5780 5783 5786 5787 5788 5790 5791 5793 5794 5796 5796 5795 5796 5797 5792 5790 5788 5787 5786 5784 5783 5781 5779 5777 5775 5774 5772 5771 5770 5769 5768 5767 5767 5766 5766 5765 5765 5765 5765 5764 5764 5764 5764 5765
5778 5781 5783 5785 5787 5788 5788 5789 5790 5791 5791 5791 5791 5793 5787 5785 5784 5782 5781 5779 5777 5775 5773 5771 5770 5768 5766 5765 5764 5763 5762 5762 5761 5761 5760 5759 5759 5759 5759 5759 5759 5759 5759 5759
5775 5777 5781 5783 5783 5783 5784 5785 5786 5787 5787 5787 5787 5785 5782 5780 5779 5777 5775 5773 5772 5770 5768 5765 5764 5762 5760 5759 5758 5757 5756 5756 5755 5755 5754 5754 5753 5753 5753 5753 5753 5753 5753 5754
5772 5774 5776 5777 5778 5780 5781 5782 5782 5782 5782 5782 5782 5779 5777 5775 5774 5772 5770 5768 5766 5764 5762 5759 5757 5756 5754 5753 5752 5751 5750 5749 5749 5748 5748 5748 5748 5747 5747 5747 5747 5748 5748 5748
5768 5770 5772 5774 5775 5776 5777 5778 5778 5778 5778 5777 5776 5775 5772 5770 5768 5766 5764 5762 5759 5757 5755 5753 5751 5749 5748 5746 5745 5744 5743 5743 5742 5742 5742 5742 5742 5742 5742 5742 5742 5742 5743 5743
5764 5766 5769 5770 5771 5773 5774 5774 5774 5774 5773 5773 5771 5770 5767 5765 5763 5761 5758 5756 5753 5751 5749 5747 5745 5743 5741 5740 5738 5738 5737 5736 5736 5736 5736 5736 5736 5736 5736 5736 5737 5737 5737 5738
5761 5763 5765 5767 5769 5770 5772 5770 5770 5770 5769 5768 5766 5765 5762 5760 5758 5755 5752 5750 5747 5745 5743 5740 5738 5737 5735 5734 5732 5732 5731 5730 5730 5730 5730 5730 5730 5730 5731 5731 5732 5733 5733 5733
5757 5760 5762 5764 5765 5767 5767 5767 5766 5766 5765 5764 5762 5760 5758 5755 5752 5750 5747 5744 5741 5739 5736 5734 5732 5731 5729 5728 5727 5726 5725 5725 5725 5725 5725 5725 5725 5726 5726 5727 5728 5728 5729 5729
5755 5757 5759 5761 5762 5763 5764 5763 5763 5764 5762 5760 5758 5756 5753 5750 5748 5745 5741 5738 5735 5732 5730 5728 5726 5725 5724 5723 5722 5721 5721 5721 5721 5721 5721 5721 5721 5722 5723 5723 5724 5725 5725 5726
5753 5754 5756 5758 5759 5760 5760 5760 5761 5761 5760 5757 5754 5752 5749 5746 5743 5740 5736 5732 5730 5727 5725 5723 5722 5721 5720 5719 5718 5717 5717 5717 5717 5717 5717 5718 5719 5719 5720 5721 5721 5722 5722 5723
5751 5752 5754 5755 5756 5759 5757 5757 5758 5757 5755 5753 5751 5748 5745 5742 5738 5735 5731 5728 5725 5723 5721 5719 5718 5717 5716 5715 5715 5714 5714 5714 5715 5715 5715 5716 5716 5717 5718 5718 5719 5720 5720 5720
5748 5751 5752 5754 5756 5755 5754 5754 5754 5753 5752 5750 5748 5745 5742 5738 5735 5731 5728 5725 5722 5720 5718 5716 5715 5714 5714 5713 5713 5712 5712 5712 5713 5713 5714 5714 5715 5716 5717 5717 5718 5718 5718 5719
5747 5748 5749 5750 5751 5752 5752 5752 5751 5750 5749 5747 5744 5742 5739 5735 5732 5728 5725 5723 5720 5718 5716 5714 5713 5713 5712 5712 5711 5711 5711 5712 5712 5713 5713 5714 5715 5716 5716 5717 5717 5718 5718 5718
5745 5746 5747 5748 5749 5749 5750 5750 5749 5748 5746 5744 5742 5739 5736 5733 5730 5726 5724 5721 5719 5716 5715 5713 5712 5712 5712 5711 5711 5711 5711 5712 5712 5713 5714 5714 5715 5716 5717 5717 5717 5717 5718 5718
5742 5744 5745 5746 5747 5748 5748 5747 5747 5746 5744 5742 5740 5737 5734 5731 5728 5725 5723 5720 5718 5716 5715 5713 5712 5712 5712 5711 5711 5712 5712 5713 5714 5714 5715 5715 5716 5717 5717 5717 5718 5718 5718 5718